Location: Battery Park City
(40.7115°N, 74.0163°W)
Time: 17:57:19
(UTC+00:00)

Cosmos 2242 Rocket - Pass Details

Date: 08 December 2019
Orbit: 617 x 652 km, 82.5° (Epoch: 19 January)

Event Time Altitude Azimuth Distance (km) Brightness Sun altitude
Rises 22:42:29 0° 185° (S) 2,941 7.4 -13.6°
Reaches altitude 10° 22:44:43 10° 184° (S) 2,040 6.5 -14.0°
Maximum altitude 22:49:15 85° 99° (E) 658 3.6 -14.8°
Drops below altitude 10° 22:53:52 10° 9° (N) 2,067 6.0 -15.7°
Enters shadow 22:55:50 - 9° (N) 2,861 6.7 -16.0°
